Regional Weather Roundup
Issued by NWS

Home | Current Version | Previous Version | Text Only | Print | Product List | Glossary Off
Versions: 1 2 3 4 5 6 7 8 9 10 11 12 13 14 15 16 17 18 19 20 21 22 23 24 25 26 27 28 29 30 31 32 33 34 35 36 37 38 39 40 41 42 43 44 45 46 47 48 49 50

000
ASUS43 KDTX 221401
RWRMI
MICHIGAN HOURLY REGIONAL WEATHER ROUNDUP
NATIONAL WEATHER SERVICE DETROIT/PONTIAC MI
900 AM EST SAT NOV 22 2014

NOTE: "FAIR" INDICATES FEW OR NO CLOUDS BELOW 12,000 FEET WITH NO
SIGNIFICANT WEATHER AND/OR OBSTRUCTION TO VISIBILITY.

MIZ047>049-052>055-059>063-066>070-074>076-081>083-221500-
SOUTHEAST LOWER MICHIGAN

CITY           SKY/WX    TMP DP  RH WIND       PRES   REMARKS
ADRIAN         CLOUDY    32  31  96 SW9       30.13S FOG     WCI  24
ALMA           CLOUDY    33  31  96 S10G16    30.02F FOG     WCI  24
ANN ARBOR      CLOUDY    32  29  88 SW9       30.10F FOG     WCI  24
BAD AXE        MIX PCPN  32  29  88 SW10      30.02F WCI  24
DETROIT CITY   CLOUDY    33  28  81 SW9       30.12F HAZE    WCI  25
DETROIT        CLOUDY    32  29  88 S9        30.13F FOG     WCI  24
FLINT          RAIN      35  30  82 SW10      30.05F WCI  27
GROSSE ILE     MIX PCPN  34  30  86 S7        30.12F WCI  28
HILLSDALE      CLOUDY    34  34 100 S8        30.08F FOG     WCI  28
HOWELL         CLOUDY    32  31  98 S8        30.06F FOG     WCI  25

CITY           SKY/WX    TMP DP  RH WIND       PRES   REMARKS
JACKSON        CLOUDY    35  33  92 SW10      30.07F WCI  27
LAMBERTVILLE   CLOUDY    34  32  93 SW6       30.14F FOG     WCI  29
LANSING        CLOUDY    35  32  88 SW15      30.04F FOG     WCI  25
LAPEER         CLOUDY    33  31  89 SW12G21   30.05F WCI  25
MASON          LGT RAIN  35  33  93 SW8G16    30.06F WCI  29
MONROE         CLOUDY    34  32  93 SW8       30.12F FOG     WCI  27
MT. CLEMENS    CLOUDY    31  31  99 SW10      30.08F WCI  22
PONTIAC        FRZ DRZL  30  27  88 S9        30.07F FOG     WCI  22
PORT HOPE        N/A     33  27  78 SW10G20   29.99F WCI  25
PORT HURON     MIX PCPN  30  28  93 S9G18     30.10F WCI  22
TRI CITIES     FRZ RAIN  34  29  82 SW10      30.01F WCI  26
TROY           MIX PCPN  32  28  86 S8        30.11F WCI  25
SAGINAW HB     LGT SNOW  32  32 100 S12       30.01F WCI  23
$$
MIZ043>046-050>051-056>058-064>065-071>073-077>080-221500-
SOUTHWEST LOWER MICHIGAN

CITY           SKY/WX    TMP DP  RH WIND       PRES   REMARKS
BATTLE CREEK   LGT RAIN  36  32  85 SW14      30.07S FOG     WCI  27
BENTON HARBOR  CLOUDY    35  34  96 S7        30.06S FOG     WCI  29
BIG RAPIDS     CLOUDY    33  32  95 S8        29.95F FOG     WCI  27
COLDWATER      CLOUDY    37  34  91 SW10      30.09S FOG     WCI  29
FREMONT        DRIZZLE   36  35  98 SW12      29.98F WCI  27
HOLLAND        LGT RAIN  38  36  92 SW13      30.03F FOG     WCI  30
GRAND RAPIDS   LGT RAIN  35  32  88 SW10      30.03F FOG     WCI  27
IONIA          MIX PCPN  35  34  96 SW12G20   30.02F WCI  26
KALAMAZOO      CLOUDY    35  33  92 S10       30.07F FOG     WCI  27
LUDINGTON      CLOUDY    38  35  92 SW16G24   29.95S WCI  28
MARSHALL       CLOUDY    34  32  93 SW9       30.07S FOG     WCI  26
MOUNT PLEASANT CLOUDY    33  31  92 SW9       29.99F WCI  25
MUSKEGON       CLOUDY    40  36  86 SW18G24   30.01F WCI  31
SOUTH HAVEN    DRIZZLE   37  35  94 SW8       30.05S WCI  31
$$
MIZ016>042-221500-
NORTHERN LOWER MICHIGAN

CITY           SKY/WX    TMP DP  RH WIND       PRES   REMARKS
ALPENA         CLOUDY    33  25  72 SW14G22   29.90R WCI  23
BEAVER ISLAND  CLOUDY    38  34  84 SW15G25   29.83S WCI  29
BELLAIRE       CLOUDY    36  32  85 S13G23    29.90S WCI  27
CADILLAC       CLOUDY    33  32  97 SW17G26   29.90F FOG     WCI  22
CHARLEVOIX     CLOUDY    36  33  89 SW15G22   29.89S WCI  26
FRANKFORT      CLOUDY    37  35  92 SW16G23   29.92S FOG     WCI  28
GAYLORD        CLOUDY    32  29  88 SW18G24   29.86F WCI  20
GRAYLING       CLOUDY    33  30  92 SW12G20   29.91S WCI  24
HARBOR SPRINGS CLOUDY    35  32  88 SW12G17   29.86F WCI  27
HOUGHTON LAKE  CLOUDY    30  27  88 SW9       29.93F WCI  22
MANISTEE       CLOUDY    37  34  87 SW8       29.94S WCI  31
OSCODA         MIX PCPN  29  27  90 SW14      29.94F WCI  18
PELLSTON       CLOUDY    36  31  82 SW7       29.86S WCI  30
ROGERS CITY    CLOUDY    34  30  85 SW10G23   29.87F WCI  26
TRAVERSE CITY  CLOUDY    36  32  85 VRB7      29.89F FOG     WCI  30
$$
MIZ007>008-015-221500-
EASTERN UPPER MICHIGAN

CITY           SKY/WX    TMP DP  RH WIND       PRES   REMARKS
KINROSS        CLOUDY    37  36  93 SW12G23   29.79S WCI  30
MACKINAC ISLAN CLOUDY    37  33  87 SW12G18   29.83S WCI  29
NEWBERRY       CLOUDY    33  28  83 SW16G26   29.77F WCI  22
S. S. MARIE    CLOUDY    36  31  82 SW15G23   29.77F WCI  27
MUNISING         N/A     33  23  66 S8        29.76F WCI  26
$$
MIZ004>006-011>014-085-221500-
CENTRAL UPPER MICHIGAN

CITY           SKY/WX    TMP DP  RH WIND       PRES   REMARKS
MANISTIQUE     CLOUDY    34  29  82 SW12      29.81F WCI  26
ESCANABA       CLOUDY    34  23  64 SW12G18   29.80F WCI  25
MENOMINEE      CLOUDY    34  27  75 SW12      29.84S WCI  25
SAWYER-GWINN   CLOUDY    28  25  86 S12       29.73F WCI  18
$$
MIZ001>003-009>011-084-221500-
WESTERN UPPER MICHIGAN

CITY           SKY/WX    TMP DP  RH WIND       PRES   REMARKS
IRON MOUNTAIN  CLOUDY    33  28  81 VRB7      29.76F WCI  27
HOUGHTON       CLOUDY    33  26  75 W10       29.67F WCI  25
COPPER HARBOR    N/A     33  26  75 VRB7      29.68F WCI  27
IRONWOOD       CLOUDY    34  30  86 SW13G18   29.70R WCI  25
$$

ABBREVIATIONS USED IN REMARKS
   TC - TEMPERATURE IN CELSIUS
  WCI - WIND CHILL INDEX
   HX - HEAT INDEX
  VSB - VISIBILITY




USA.gov is the U.S. government's official web portal to all federal, state and local government web resources and services.